Regional Weather Roundup
Issued by NWS

Home | Current Version | Previous Version | Text Only | Print | Product List | Glossary Off
Versions: 1 2 3 4 5 6 7 8 9 10 11 12 13 14 15 16 17 18 19 20 21 22 23 24 25 26 27 28 29 30 31 32 33 34 35 36 37 38 39 40 41 42 43 44 45 46 47 48 49 50

000
ASUS43 KOAX 241302
RWRNE

WEATHER ROUNDUP FOR NEBRASKA
NATIONAL WEATHER SERVICE OMAHA NE
800 AM CDT WED MAY 24 2017

NOTES: SATELLITE DATA IS BEING USED TO AUGMENT CLOUD COVER ABOVE
       12000 FEET.
       "FAIR" INDICATES FEW OR NO CLOUDS BELOW 12,000 FEET WITH NO
       SIGNIFICANT WEATHER AND/OR OBSTRUCTIONS TO VISIBILITY.

  * THESE STATIONS DO NOT REPORT WEATHER SUCH AS RAIN...SNOW OR FOG.

NEZ001>004-019>022-054>056-241400-
NEBRASKA PANHANDLE

CITY           SKY/WX    TMP DP  RH WIND       PRES   REMARKS
SCOTTSBLUFF    SUNNY     41  36  82 SE13      29.79F
ALLIANCE       SUNNY     43  40  89 S9        29.81F
CHADRON        SUNNY     48  39  71 S8        29.77F
GORDON         FAIR      42  37  85 S6        29.81F
SIDNEY         SUNNY     42  39  89 S6        29.84F
$$

NEZ057>060-069>072-079>082-241400-
SOUTHWEST NEBRASKA

CITY           SKY/WX    TMP DP  RH WIND       PRES   REMARKS
NORTH PLATTE   SUNNY     41  38  89 NW3       29.87F
IMPERIAL       SUNNY     43  37  79 CALM      29.87F
LEXINGTON      SUNNY     42  38  86 W8        29.86S
MCCOOK         SUNNY     43  38  82 W9        29.89S
OGALLALA       SUNNY     39  37  92 CALM      29.86F
$$

NEZ005>010-023>029-035>040-094-241400-
NORTH CENTRAL NEBRASKA

CITY           SKY/WX    TMP DP  RH WIND       PRES   REMARKS
VALENTINE      SUNNY     40  35  83 SW3       29.84F
AINSWORTH      SUNNY     42  39  90 W3        29.84F
BROKEN BOW     SUNNY     44  39  82 NW5       29.84F
O`NEILL        SUNNY     47  42  84 NW3       29.83F
ORD            SUNNY     45  40  82 NW5       29.83F
THEDFORD       SUNNY     40  38  92 W3        29.85F
$$

NEZ041-046>049-061>064-073>077-083>087-241400-
SOUTH CENTRAL NEBRASKA

CITY           SKY/WX    TMP DP  RH WIND       PRES   REMARKS
GRAND ISLAND   SUNNY     47  43  86 N10       29.84F
AURORA         SUNNY     48  44  84 N13       29.83F
HASTINGS       SUNNY     49  42  77 N10       29.84F
HEBRON         SUNNY     50  45  82 N9        29.83S
HOLDREGE       SUNNY     45  40  83 NW7       29.85S
KEARNEY *      SUNNY     46  39  76 N6        29.85F
$$

NEZ011>018-030>034-042>045-241400-
NORTHEAST NEBRASKA

CITY           SKY/WX    TMP DP  RH WIND       PRES   REMARKS
NORFOLK        MOSUNNY   48  43  82 NW7       29.82S
ALBION         SUNNY     47  43  87 NW7       29.83F
BLAIR          PTSUNNY   50  47  87 N13       29.78S
FREMONT        PTSUNNY   49  47  93 NW7G18    29.81S
TEKAMAH        SUNNY     51  46  83 N14       29.79S
WAYNE          CLOUDY    47  47  99 NW9       29.81S
$$

NEZ050>053-065>068-078-088>093-241400-
SOUTHEAST NEBRASKA

CITY           SKY/WX    TMP DP  RH WIND       PRES   REMARKS
LINCOLN        SUNNY     51  45  79 N15       29.81S
OMAHA EPPLEY   MOSUNNY   51  46  83 N13       29.77S
BEATRICE       SUNNY     50  47  87 NW10G16   29.80R
FALLS CITY     CLOUDY    51  48  89 NW14      29.74S
NEBRASKA CITY  MOSUNNY   53  47  80 N14       29.76S
PLATTSMOUTH    MOSUNNY   51  45  79 NW9       29.77S
$$

NEZ044-045-051>053-067-241400-
OMAHA AREA

CITY           SKY/WX    TMP DP  RH WIND       PRES   REMARKS
OMAHA EPPLEY   MOSUNNY   51  46  83 N13       29.77S
BLAIR          PTSUNNY   50  47  87 N13       29.78S
FREMONT        PTSUNNY   49  47  93 NW7G18    29.81S
MILLARD        MOSUNNY   53  47  82 NW10      29.78S
OFFUTT AFB     SUNNY     52  46  80 N9        29.76S
PLATTSMOUTH    MOSUNNY   51  45  79 NW9       29.77S
WAHOO          FAIR      49  46  88 NW9       29.80S
$$




USA.gov is the U.S. government's official web portal to all federal, state and local government web resources and services.